Location: *
(49.0044°N, 9.5056°E)
Time: 09:39:36
(UTC+00:00)

USA 245 - Pass Details

Date: 22 September 2019
Orbit: 266 x 999 km, 97.9° (Epoch: 04 October)

Event Time Altitude Azimuth Distance (km) Brightness Sun altitude
Exits shadow 20:14:05 74° 78° (ENE) 949 4.2 -27.4°
Maximum altitude 20:14:08 74° 74° (ENE) 948 4.2 -27.4°
Drops below altitude 10° 20:19:36 10° 350° (N) 2,408 7.1 -28.1°
Sets 20:21:46 0° 349° (NNW) 3,244 8.0 -28.4°
